SCP
0 0 0 -0 0 0 0 0 0 0 0 0 0 0 0 0 0 -0 0 -0 -0 -0 -0 -0 0 -0 -0 -0 -0 -0 -0 -0 -0 -0 -0 -0 -0 -0 -0 -0 -0 -0 -0 -0 -0 -0 -0 -0 -0
0 0 -0 -0 0 0 0 0 0 0 0 0 0 0 0 0 0 0 -0 -0 -0 -0 -0 -0 -0 -0 -0 -0 -0 -0 -0 -0 -0 -0 -0 -0 -0 -0 -0 -0 -0 -0 -0 -0 -0 -0 -0 -0 -0
0 0 0 0 0 0 0 0 0 0 -0 0 0 0 0 0 0 -0 -0 -0 -0 -0 -0 -0 -0 -0 -0 -0 -0 -0 -0 -0 -0 -0 -0 -0 -0 -0 -0 -0 -0 -0 -0 -0 -0 -0 -0 -0 -0
0 -0 -0 0 0 0 0 0 0 -0 0 0 0 0 0 0 -0 0 -0 -0 -0 -0 -0 -0 -0 -0 -0 -0 -0 -0 -0 -0 -0 -0 -0 -0 -0 -0 -0 -0 -0 -0 -0 -0 -0 -0 -0 -0 -0
0 -0 -0 -0 -0 -0 0 0 -0 -0 0 0 -0 0 0 0 0 0 -0 -0 -0 -0 -0 -0 -0 -0 -0 -0 -0 -0 -0 -0 -0 -0 -0 -0 -0 -0 -0 -0 -0 -0 -0 -0 -0 -0 -0 -0 -0
0 0 -0 -0 -0 0 0 0 -0 -0 0 0 0 0 -0 -0 -0 -0 -0 -0 -0 -0 -0 -0 -0 -0 -0 -0 -0 -0 -0 -0 -0 -0 -0 -0 -0 -0 -0 -0 -0 -0 -0 -0 -0 -0 -0 -0 -0
0 0 -0 -0 -0 -0 -0 -0 -0 -0 -0 -0 -0 0 -0 -0 -0 -0 -0 -0 -0 -0 -0 -0 -0 -0 -0 -0 -0 -0 -0 -0 -0 -0 -0 -0 -0 -0 -0 -0 -0 -0 -0 -0 -0 -0 -0 -0 -0
0 0 -0 -0 -0 -0 -0 -0 -0 -0 -0 0 0 0 0 -0 -0 -0 -0 -0 -0 -0 -0 -0 -0 -0 -0 -0 -0 -0 -0 -0 -0 -0 -0 -0 -0 -0 -0 -0 -0 -0 -0 -0 -0 -0 -0 -0 -0
0 0 -0 0 0 0 -0 -0 0 0 0 0 0 -0 0 -0 -0 -0 -0 -0 -0 -0 -0 -0 -0 -0 -0 -0 -0 -0 -0 -0 -0 -0 -0 -0 -0 -0 -0 -0 -0 -0 -0 -0 -0 -0 -0 -0 -0
0 0 0 0 0 0 0 -0 -0 -0 -0 -0 -0 -0 0 -0 -0 -0 -0 -0 -0 -0 -0 -0 -0 -0 -0 0 0 0 0 0 0 0 0 0 0 0 0 -0 -0 -0 -0 -0 -0 -0 -0 0 0
0 0 0 0 0 0 0 0 0 -0 -0 -0 -0 -0 -0 -0 -0 -0 -0 -0 -0 -0 0 0 0 0 0 0 0 0 0 0 0 0 0 0 0 0 0 0 0 0 0 0 0 0 0 0 0
0 0 0 0 0 0 0 0 0 -0 -0 0 -0 0 -0 -0 -0 -0 -0 -0 -0 -0 0 0 0 0 0 0 0 0 0 0 0 0 0 0 0 0 0 0 0 0 0 0 0 0 0 0 0
0 0 0 0 0 0 0 0 0 0 -0 0 0 0 -0 -0 -0 -0 -0 0 0 0 0 0 0 0 0 0 0 0 0 0 0 0 0 0 0 0 0 0 0 0 0 0 0 0 0 0 0
0 0 0 0 0 0 0 0 0 0 0 0 -0 -0 -0 -0 -0 0 0 0 0 0 0 0 0 0 0 0 0 0 0 0 0 0 0 0 0 0 0 0 0 0 0 0 0 0 0 0 0
0 0 0 0 0 0 0 0 0 0 0 0 -0 -0 -0 0 0 -0 0 0 0 0 0 0 0 0 0 0 0 0 0 0 0 0 0 0 0 0 0 0 0 0 0 0 0 0 0 0 0
0 0 0 0 0 0 0 0 0 0 0 -0 -0 0 0 0 0 0 0 0 0 0 0 0 0 0 0 0 0 0 0 0 0 0 0 0 0 0 0 0 0 0 0 0 0 0 0 0 0
0 0 0 0 0 0 0 0 0 0 0 0 0 0 0 0 0 0 0 0 0 0 0 0 0 0 0 0 0 0 0 0 0 0 0 0 0 0 0 0 0 0 0 0 0 0 0 0 0
0 0 0 0 0 0 0 0 0 0 0 0 -0 0 0 0 0 0 0 0 0 0 0 0 0 0 0 0 0 0 0 0 0 0 0 0 0 0 0 0 0 0 0 0 0 0 0 0 0
0 0 0 0 0 0 0 0 0 0 0 0 0 0 0 0 0 0 0 0 0 0 0 0 0 0 0 0 0 0 0 0 0 0 0 0 0 0 0 0 0 0 0 0 0 0 0 0 0
0 0 0 0 0 0 0 0 0 0 0 0 0 0 0 0 0 0 0 0 0 0 0 0 0 0 0 0 0 0 0 0 0 0 0 0 0 0 0 0 0 0 0 0 0 0 0 0 0
0 0 0 0 0 0 0 -0 -0 0 0 0 0 0 0 0 0 0 0 0 0 0 0 0 0 0 0 0 0 0 0 0 0 0 0 0 0 0 0 0 0 0 0 0 0 0 0 0 0
0 0 0 0 0 0 0 0 0 0 0 0 0 0 0 0 0 0 0 0 0 0 0 0 0 0 0 0 0 0 0 0 0 0 0 0 0 0 0 0 0 0 0 0 0 0 0 0 0
0 0 0 0 0 0 0 0 0 0 0 0 0 0 0 0 0 0 0 0 0 0 0 0 0 0 0 0 0 0 0 0 0 0 0 0 0 0 0 0 0 0 0 0 0 0 0 0 0
0 0 0 0 0 0 0 0 -0 0 0 0 0 0 0 0 0 0 0 0 0 0 0 0 0 0 0 0 0 0 0 0 0 0 0 0 0 0 0 0 0 0 0 0 0 0 0 0 0
0 0 0 0 0 0 0 0 0 0 0 0 0 0 0 0 0 0 0 0 0 0 0 0 0 0 0 0 0 0 0 0 0 0 0 0 0 0 0 0 0 0 0 0 0 0 0 0 0
0 0 0 0 0 0 0 0 0 0 0 0 0 -0 -0 0 0 0 0 0 0 0 0 0 0 0 0 0 0 0 0 0 0 0 0 0 0 0 0 0 0 0 0 0 0 0 0 0 0
0 0 0 0 0 0 0 0 0 0 0 0 0 0 0 0 0 0 0 0 0 0 0 0 0 0 0 0 0 0 0 0 0 0 0 0 0 0 0 0 0 0 0 0 0 0 0 0 0
0 0 0 0 0 0 0 0 0 0 0 0 0 0 0 0 0 0 0 0 0 0 0 0 0 0 0 0 0 0 0 0 0 0 0 0 0 0 0 0 0 0 0 0 0 0 0 0 0
0 0 0 0 0 0 0 0 0 0 0 0 0 0 0 0 0 0 0 0 0 0 -0 -0 -0 0 0 0 0 0 0 0 0 0 0 0 0 0 0 0 0 0 0 0 0 0 0 0 0
0 0 0 0 0 0 0 0 0 0 0 0 0 0 0 0 0 0 0 0 0 -0 -0 -0 -0 0 0 0 0 0 0 0 0 0 0 0 0 0 0 0 0 0 0 0 0 0 0 0 0
Wind_Speed_500mb
6 4 2 4 7 6 3 7 0 12 11 5 11 9 5 5 4 5 31 38 40 41 39 33 29 28 26 22 18 16 19 19 22 24 27 28 28 26 24 25 26 30 28 35 31 29 30 30 31
6 4 3 2 7 8 3 8 15 13 4 13 11 6 4 3 5 13 38 38 39 39 40 35 32 28 26 22 18 15 16 19 21 23 25 26 26 24 23 22 23 26 30 33 28 28 26 25 28
7 9 3 1 4 8 3 12 12 12 18 10 8 6 3 4 9 30 26 39 41 38 38 36 32 29 26 23 19 13 12 15 18 22 23 23 23 22 21 21 21 22 25 31 28 25 21 22 24
9 4 6 8 9 2 4 11 15 25 7 9 6 7 4 14 23 25 40 41 41 39 36 34 32 29 25 22 18 13 11 13 16 20 20 20 20 18 18 19 20 19 20 24 20 17 18 19 22
10 4 7 5 5 3 5 7 22 24 11 12 12 6 6 21 30 35 38 39 40 41 38 33 31 29 26 24 20 17 13 13 14 15 16 18 19 18 18 18 19 19 18 17 17 16 17 19 21
6 3 8 16 5 3 6 12 22 21 9 10 9 9 8 24 29 35 39 39 39 42 42 37 33 30 27 23 21 18 16 13 13 12 13 15 17 17 17 17 18 18 19 18 18 18 18 20 22
4 7 13 3 4 5 7 19 23 25 13 14 5 7 7 27 33 35 38 37 38 39 41 39 36 33 29 24 22 20 18 16 15 13 11 12 16 17 18 19 19 18 18 18 19 20 20 21 22
6 3 8 7 9 8 14 22 11 25 16 10 14 8 7 29 37 39 42 39 40 41 40 38 37 36 32 27 24 23 21 18 18 15 11 10 14 16 19 21 20 18 17 17 18 18 18 19 20
9 8 16 11 12 6 16 19 12 15 10 18 18 12 12 31 40 44 46 48 48 47 46 43 41 39 33 28 23 18 17 19 21 20 15 12 11 12 14 18 20 19 19 19 19 18 18 18 21
8 11 15 5 10 7 16 20 16 13 19 17 22 30 19 31 45 48 50 49 55 54 52 48 46 42 37 33 31 25 25 22 23 23 19 13 10 8 5 11 15 15 15 17 18 19 20 19 22
5 13 3 6 9 5 13 15 13 18 17 32 34 30 36 31 45 48 47 46 50 51 56 55 50 47 42 42 38 34 33 30 28 26 19 17 16 14 10 6 2 4 7 7 11 15 17 18 20
8 6 8 4 8 8 9 8 13 28 32 18 29 22 35 41 45 52 53 51 50 57 54 54 54 51 49 48 42 43 40 40 36 33 29 28 21 20 20 18 15 10 6 3 6 11 13 15 17
6 8 9 5 8 8 7 15 19 28 41 38 25 25 36 42 47 50 50 50 58 59 60 56 51 53 52 52 52 48 43 45 39 41 38 35 30 30 26 23 19 17 15 8 10 12 14 15 16
2 3 4 5 7 7 9 8 6 10 30 41 43 44 41 43 46 49 59 63 63 62 63 61 59 53 52 55 56 54 55 48 46 46 46 42 39 36 31 30 28 24 24 20 20 19 17 18 20
3 5 8 15 8 6 8 18 31 38 31 22 36 47 48 47 49 54 56 63 65 66 65 66 63 61 60 55 61 62 63 60 54 48 50 49 47 45 39 37 35 33 30 29 26 22 19 22 24
1 3 8 7 10 4 10 23 14 13 29 44 41 42 47 50 53 54 58 62 68 68 69 66 66 65 63 62 61 66 71 68 65 60 57 57 54 52 47 46 44 42 39 37 30 25 25 27 28
3 9 11 9 10 4 17 15 11 13 15 28 30 37 44 56 60 60 61 63 69 70 69 70 69 69 67 65 65 66 66 70 69 70 66 63 62 59 61 52 48 48 44 45 37 32 31 36 36
12 10 8 14 5 7 17 38 33 28 24 36 42 42 42 50 61 59 61 63 68 72 74 74 74 72 68 66 67 70 72 70 69 73 73 68 64 64 62 57 58 60 53 53 45 40 40 39 41
5 6 13 13 5 6 24 40 42 43 42 54 59 59 60 65 66 59 58 61 68 74 79 81 80 78 75 73 72 74 76 76 78 77 75 77 72 70 69 62 66 65 44 59 49 45 47 53 52
12 20 25 24 7 12 27 41 43 47 58 58 60 66 67 65 63 69 73 69 71 77 81 83 84 81 78 75 72 74 74 74 75 73 75 74 71 73 68 71 70 71 59 62 55 52 55 57 58
22 28 23 20 7 16 23 29 30 20 32 47 61 68 69 74 69 56 65 69 75 79 84 85 85 83 80 76 74 76 70 70 71 72 77 75 74 77 70 66 69 73 66 71 64 57 65 69 71
30 25 20 16 8 16 3 19 36 30 34 25 50 56 66 56 57 59 59 63 71 75 77 83 86 86 83 79 80 77 77 77 75 73 71 66 72 64 72 73 76 73 74 74 64 60 68 71 70
7 12 15 7 12 12 22 14 15 4 16 30 46 55 43 38 45 47 49 47 48 58 70 78 86 88 86 84 80 78 76 73 72 73 68 67 74 70 71 63 90 70 78 64 72 67 77 73 70
26 13 8 4 2 18 21 18 26 14 20 13 20 32 17 9 11 13 22 30 39 47 54 66 77 84 85 85 82 79 76 74 75 73 71 73 72 72 73 68 68 71 66 60 67 73 74 71 69
8 15 7 8 9 20 11 19 41 30 27 26 28 34 19 18 10 7 9 14 22 31 41 54 66 76 80 84 83 81 75 75 69 70 71 73 76 82 77 77 75 71 63 65 71 75 74 72 67
26 20 13 13 11 16 8 19 12 26 34 47 45 52 43 42 35 26 24 22 23 25 29 37 49 61 73 78 78 76 74 74 69 66 68 70 69 70 76 81 77 68 66 72 72 74 75 71 66
15 21 19 12 4 8 21 39 29 21 29 29 40 31 32 30 25 27 23 17 16 17 19 25 34 44 60 65 70 74 76 73 69 64 63 69 69 73 79 80 80 72 72 73 75 76 74 71 65
18 21 9 8 11 16 21 23 26 11 22 28 25 28 30 29 18 15 10 9 9 9 10 15 22 32 44 52 61 67 69 68 65 63 65 72 78 74 79 88 79 79 78 78 81 79 74 71 68
15 21 7 6 10 9 14 22 8 14 13 20 11 11 13 18 32 20 11 7 7 7 4 3 10 18 28 41 51 59 64 64 64 62 61 69 73 75 84 86 85 83 84 83 82 78 75 72 68
17 32 41 14 11 11 9 34 11 5 5 8 4 3 4 17 34 24 18 18 16 11 7 7 13 22 26 31 44 54 60 61 66 66 64 68 73 75 79 85 88 87 84 86 86 83 79 75 72
Wind_Direction_500mb
241 277 342 26 241 269 196 160 3 162 178 176 157 201 227 23 318 16 155 167 165 167 168 165 163 160 156 154 133 120 104 95 91 81 75 75 81 89 94 97 98 97 94 95 98 94 88 86 84
222 183 111 64 256 264 161 150 195 176 125 138 147 171 198 112 117 136 152 162 164 166 169 169 165 163 162 161 150 130 112 98 90 87 82 81 83 87 91 94 95 98 98 97 100 96 93 90 84
191 159 217 281 262 272 301 181 170 137 134 160 158 194 203 157 154 151 168 167 167 169 169 170 168 170 170 169 164 144 116 101 96 93 90 83 82 86 91 94 98 102 105 106 104 104 99 89 80
163 142 68 252 266 241 316 167 162 148 191 203 206 182 184 174 157 164 164 168 171 174 175 174 174 177 175 173 171 160 134 118 106 100 91 81 82 87 89 93 95 98 102 112 117 105 100 90 84
180 204 217 244 262 275 224 196 181 172 165 176 185 160 171 172 166 170 175 173 177 178 180 180 180 182 180 180 177 171 161 139 118 112 92 84 80 86 94 97 97 98 103 109 112 107 96 94 92
190 233 220 238 215 224 225 187 182 193 181 170 206 175 173 187 180 181 184 184 180 182 182 185 187 188 189 187 183 180 178 159 136 127 106 88 82 88 95 95 96 97 98 103 104 103 101 94 89
247 221 234 242 245 226 195 166 195 194 197 206 219 213 179 187 188 184 182 178 180 184 187 187 190 191 193 193 190 187 187 174 165 157 127 92 91 91 95 94 92 92 95 97 96 95 95 91 92
162 199 191 217 224 237 167 174 198 207 211 219 191 225 181 190 185 182 181 180 182 186 190 195 196 195 195 195 196 194 191 187 180 171 151 114 106 93 83 84 84 86 91 95 96 98 98 100 99
158 217 231 224 188 207 162 194 195 212 213 208 209 212 211 188 185 183 185 185 186 191 195 197 201 200 199 199 198 205 207 199 189 182 169 142 128 118 98 87 85 89 95 99 99 98 95 95 95
206 230 231 191 197 208 183 205 192 193 207 225 228 223 209 192 193 192 191 191 194 196 197 201 204 206 203 200 208 207 214 225 202 193 181 183 185 184 140 108 82 81 86 95 97 99 100 104 106
170 242 234 214 205 191 189 212 199 212 222 227 224 217 215 203 203 203 203 202 201 199 203 204 206 208 205 205 209 213 212 219 215 206 218 210 212 211 213 209 183 58 75 88 114 119 121 120 118
208 206 194 161 194 180 199 179 224 218 232 230 230 221 226 222 218 216 210 205 203 207 207 207 206 206 209 212 214 216 215 217 221 223 220 215 218 226 219 215 213 205 194 237 174 153 143 139 133
227 181 192 214 202 214 202 224 239 244 242 244 236 235 234 231 231 226 218 213 214 213 212 215 213 208 211 216 211 221 224 220 223 225 222 224 221 227 223 230 225 220 214 215 247 197 171 160 150
93 202 249 242 236 249 245 251 266 254 240 241 244 242 239 239 237 227 225 222 219 217 217 218 220 219 216 214 217 220 225 227 223 222 226 230 228 228 230 226 228 226 216 211 210 209 189 174 156
76 256 264 222 211 231 223 240 236 247 246 244 243 247 245 240 236 237 236 228 226 223 221 222 224 227 227 225 221 219 220 228 230 230 231 234 235 233 232 233 228 221 226 217 207 222 199 180 167
170 251 246 142 182 220 207 256 249 224 238 252 250 249 250 249 244 240 235 232 230 228 227 227 228 231 232 232 230 225 221 222 228 227 232 234 237 237 234 238 227 226 218 225 218 234 221 194 180
211 248 231 288 195 172 218 273 270 253 256 263 262 257 252 251 248 244 239 236 233 232 230 230 231 233 235 235 234 235 231 224 225 224 225 231 237 237 238 236 230 236 228 222 222 229 216 195 185
215 224 224 250 145 219 241 260 261 263 266 268 270 266 261 256 250 248 246 240 236 233 232 233 234 235 236 236 234 234 235 234 226 226 225 225 232 233 239 235 231 238 219 231 218 215 207 206 196
126 220 259 261 174 253 254 267 272 271 266 265 264 262 259 255 258 253 248 245 239 236 234 234 235 235 234 236 236 236 234 232 231 226 226 226 227 233 233 235 235 236 241 216 219 217 215 199 194
223 259 261 281 227 222 272 268 276 269 259 258 262 263 259 261 256 252 251 249 244 240 237 234 236 236 237 238 238 237 236 233 232 225 225 224 224 230 229 235 226 223 234 211 217 216 208 205 195
228 235 249 262 305 228 290 269 251 264 259 260 257 259 261 256 258 254 255 252 247 241 239 236 236 237 238 236 234 236 235 234 229 223 226 226 226 229 224 233 235 228 230 220 218 224 221 208 196
239 213 237 254 281 276 238 287 281 270 266 256 261 254 256 264 264 263 253 260 252 247 243 240 238 236 236 235 237 237 237 235 234 232 229 229 218 221 234 236 239 225 229 217 217 234 223 215 209
232 143 181 187 236 315 238 264 249 173 260 252 259 264 270 267 272 272 267 261 254 247 243 241 237 235 235 235 237 238 237 237 236 234 232 227 231 226 227 236 225 222 217 223 230 225 216 216 216
139 102 78 88 217 262 244 220 274 207 233 254 254 270 277 301 290 266 254 249 240 237 235 236 236 236 235 236 237 237 237 234 234 231 231 227 227 224 229 224 221 219 226 237 231 221 218 215 214
195 159 217 232 198 251 96 210 251 286 249 248 265 270 276 282 264 270 270 251 243 241 239 236 234 234 234 235 234 234 233 237 237 237 235 226 226 230 222 226 221 225 235 233 223 218 215 213 216
194 199 204 225 228 276 108 237 262 242 268 246 260 269 274 273 268 265 270 254 245 241 239 239 239 236 234 235 234 236 235 239 238 238 230 228 234 231 232 221 221 226 229 222 216 213 212 214 218
173 213 250 268 124 279 255 265 259 233 250 253 248 249 266 277 270 252 245 248 246 241 240 243 244 239 239 239 235 234 235 237 239 237 229 227 230 235 230 233 222 222 218 220 212 211 212 215 217
211 145 170 213 224 241 256 264 254 236 240 247 254 255 257 248 230 224 227 216 214 217 231 250 258 250 248 244 238 236 238 239 238 234 231 230 233 234 233 233 220 220 219 216 212 212 213 214 215
179 210 209 223 224 241 272 260 178 235 278 267 278 270 269 238 207 182 203 204 194 171 149 247 267 271 261 247 239 235 236 239 236 234 232 232 234 240 236 226 225 220 219 215 213 213 213 213 213
238 222 203 206 198 239 275 264 142 87 14 303 220 249 214 174 167 156 189 196 198 196 190 243 261 266 265 252 242 236 234 239 235 233 230 228 235 237 231 227 224 219 216 214 214 213 212 212 210
Wind_Speed_850mb
6 4 2 4 7 6 3 7 0 12 11 5 11 9 5 5 4 5 31 38 40 41 39 33 29 28 26 22 18 16 19 19 22 24 27 28 28 26 24 25 26 30 28 35 31 29 30 30 31
6 4 3 2 7 8 3 8 15 13 4 13 11 6 4 3 5 13 38 38 39 39 40 35 32 28 26 22 18 15 16 19 21 23 25 26 26 24 23 22 23 26 30 33 28 28 26 25 28
7 9 3 1 4 8 3 12 12 12 18 10 8 6 3 4 9 30 26 39 41 38 38 36 32 29 26 23 19 13 12 15 18 22 23 23 23 22 21 21 21 22 25 31 28 25 21 22 24
9 4 6 8 9 2 4 11 15 25 7 9 6 7 4 14 23 25 40 41 41 39 36 34 32 29 25 22 18 13 11 13 16 20 20 20 20 18 18 19 20 19 20 24 20 17 18 19 22
10 4 7 5 5 3 5 7 22 24 11 12 12 6 6 21 30 35 38 39 40 41 38 33 31 29 26 24 20 17 13 13 14 15 16 18 19 18 18 18 19 19 18 17 17 16 17 19 21
6 3 8 16 5 3 6 12 22 21 9 10 9 9 8 24 29 35 39 39 39 42 42 37 33 30 27 23 21 18 16 13 13 12 13 15 17 17 17 17 18 18 19 18 18 18 18 20 22
4 7 13 3 4 5 7 19 23 25 13 14 5 7 7 27 33 35 38 37 38 39 41 39 36 33 29 24 22 20 18 16 15 13 11 12 16 17 18 19 19 18 18 18 19 20 20 21 22
6 3 8 7 9 8 14 22 11 25 16 10 14 8 7 29 37 39 42 39 40 41 40 38 37 36 32 27 24 23 21 18 18 15 11 10 14 16 19 21 20 18 17 17 18 18 18 19 20
9 8 16 11 12 6 16 19 12 15 10 18 18 12 12 31 40 44 46 48 48 47 46 43 41 39 33 28 23 18 17 19 21 20 15 12 11 12 14 18 20 19 19 19 19 18 18 18 21
8 11 15 5 10 7 16 20 16 13 19 17 22 30 19 31 45 48 50 49 55 54 52 48 46 42 37 33 31 25 25 22 23 23 19 13 10 8 5 11 15 15 15 17 18 19 20 19 22
5 13 3 6 9 5 13 15 13 18 17 32 34 30 36 31 45 48 47 46 50 51 56 55 50 47 42 42 38 34 33 30 28 26 19 17 16 14 10 6 2 4 7 7 11 15 17 18 20
8 6 8 4 8 8 9 8 13 28 32 18 29 22 35 41 45 52 53 51 50 57 54 54 54 51 49 48 42 43 40 40 36 33 29 28 21 20 20 18 15 10 6 3 6 11 13 15 17
6 8 9 5 8 8 7 15 19 28 41 38 25 25 36 42 47 50 50 50 58 59 60 56 51 53 52 52 52 48 43 45 39 41 38 35 30 30 26 23 19 17 15 8 10 12 14 15 16
2 3 4 5 7 7 9 8 6 10 30 41 43 44 41 43 46 49 59 63 63 62 63 61 59 53 52 55 56 54 55 48 46 46 46 42 39 36 31 30 28 24 24 20 20 19 17 18 20
3 5 8 15 8 6 8 18 31 38 31 22 36 47 48 47 49 54 56 63 65 66 65 66 63 61 60 55 61 62 63 60 54 48 50 49 47 45 39 37 35 33 30 29 26 22 19 22 24
1 3 8 7 10 4 10 23 14 13 29 44 41 42 47 50 53 54 58 62 68 68 69 66 66 65 63 62 61 66 71 68 65 60 57 57 54 52 47 46 44 42 39 37 30 25 25 27 28
3 9 11 9 10 4 17 15 11 13 15 28 30 37 44 56 60 60 61 63 69 70 69 70 69 69 67 65 65 66 66 70 69 70 66 63 62 59 61 52 48 48 44 45 37 32 31 36 36
12 10 8 14 5 7 17 38 33 28 24 36 42 42 42 50 61 59 61 63 68 72 74 74 74 72 68 66 67 70 72 70 69 73 73 68 64 64 62 57 58 60 53 53 45 40 40 39 41
5 6 13 13 5 6 24 40 42 43 42 54 59 59 60 65 66 59 58 61 68 74 79 81 80 78 75 73 72 74 76 76 78 77 75 77 72 70 69 62 66 65 44 59 49 45 47 53 52
12 20 25 24 7 12 27 41 43 47 58 58 60 66 67 65 63 69 73 69 71 77 81 83 84 81 78 75 72 74 74 74 75 73 75 74 71 73 68 71 70 71 59 62 55 52 55 57 58
22 28 23 20 7 16 23 29 30 20 32 47 61 68 69 74 69 56 65 69 75 79 84 85 85 83 80 76 74 76 70 70 71 72 77 75 74 77 70 66 69 73 66 71 64 57 65 69 71
30 25 20 16 8 16 3 19 36 30 34 25 50 56 66 56 57 59 59 63 71 75 77 83 86 86 83 79 80 77 77 77 75 73 71 66 72 64 72 73 76 73 74 74 64 60 68 71 70
7 12 15 7 12 12 22 14 15 4 16 30 46 55 43 38 45 47 49 47 48 58 70 78 86 88 86 84 80 78 76 73 72 73 68 67 74 70 71 63 90 70 78 64 72 67 77 73 70
26 13 8 4 2 18 21 18 26 14 20 13 20 32 17 9 11 13 22 30 39 47 54 66 77 84 85 85 82 79 76 74 75 73 71 73 72 72 73 68 68 71 66 60 67 73 74 71 69
8 15 7 8 9 20 11 19 41 30 27 26 28 34 19 18 10 7 9 14 22 31 41 54 66 76 80 84 83 81 75 75 69 70 71 73 76 82 77 77 75 71 63 65 71 75 74 72 67
26 20 13 13 11 16 8 19 12 26 34 47 45 52 43 42 35 26 24 22 23 25 29 37 49 61 73 78 78 76 74 74 69 66 68 70 69 70 76 81 77 68 66 72 72 74 75 71 66
15 21 19 12 4 8 21 39 29 21 29 29 40 31 32 30 25 27 23 17 16 17 19 25 34 44 60 65 70 74 76 73 69 64 63 69 69 73 79 80 80 72 72 73 75 76 74 71 65
18 21 9 8 11 16 21 23 26 11 22 28 25 28 30 29 18 15 10 9 9 9 10 15 22 32 44 52 61 67 69 68 65 63 65 72 78 74 79 88 79 79 78 78 81 79 74 71 68
15 21 7 6 10 9 14 22 8 14 13 20 11 11 13 18 32 20 11 7 7 7 4 3 10 18 28 41 51 59 64 64 64 62 61 69 73 75 84 86 85 83 84 83 82 78 75 72 68
17 32 41 14 11 11 9 34 11 5 5 8 4 3 4 17 34 24 18 18 16 11 7 7 13 22 26 31 44 54 60 61 66 66 64 68 73 75 79 85 88 87 84 86 86 83 79 75 72
Wind_Direction_850mb
241 277 342 26 241 269 196 160 3 162 178 176 157 201 227 23 318 16 155 167 165 167 168 165 163 160 156 154 133 120 104 95 91 81 75 75 81 89 94 97 98 97 94 95 98 94 88 86 84
222 183 111 64 256 264 161 150 195 176 125 138 147 171 198 112 117 136 152 162 164 166 169 169 165 163 162 161 150 130 112 98 90 87 82 81 83 87 91 94 95 98 98 97 100 96 93 90 84
191 159 217 281 262 272 301 181 170 137 134 160 158 194 203 157 154 151 168 167 167 169 169 170 168 170 170 169 164 144 116 101 96 93 90 83 82 86 91 94 98 102 105 106 104 104 99 89 80
163 142 68 252 266 241 316 167 162 148 191 203 206 182 184 174 157 164 164 168 171 174 175 174 174 177 175 173 171 160 134 118 106 100 91 81 82 87 89 93 95 98 102 112 117 105 100 90 84
180 204 217 244 262 275 224 196 181 172 165 176 185 160 171 172 166 170 175 173 177 178 180 180 180 182 180 180 177 171 161 139 118 112 92 84 80 86 94 97 97 98 103 109 112 107 96 94 92
190 233 220 238 215 224 225 187 182 193 181 170 206 175 173 187 180 181 184 184 180 182 182 185 187 188 189 187 183 180 178 159 136 127 106 88 82 88 95 95 96 97 98 103 104 103 101 94 89
247 221 234 242 245 226 195 166 195 194 197 206 219 213 179 187 188 184 182 178 180 184 187 187 190 191 193 193 190 187 187 174 165 157 127 92 91 91 95 94 92 92 95 97 96 95 95 91 92
162 199 191 217 224 237 167 174 198 207 211 219 191 225 181 190 185 182 181 180 182 186 190 195 196 195 195 195 196 194 191 187 180 171 151 114 106 93 83 84 84 86 91 95 96 98 98 100 99
158 217 231 224 188 207 162 194 195 212 213 208 209 212 211 188 185 183 185 185 186 191 195 197 201 200 199 199 198 205 207 199 189 182 169 142 128 118 98 87 85 89 95 99 99 98 95 95 95
206 230 231 191 197 208 183 205 192 193 207 225 228 223 209 192 193 192 191 191 194 196 197 201 204 206 203 200 208 207 214 225 202 193 181 183 185 184 140 108 82 81 86 95 97 99 100 104 106
170 242 234 214 205 191 189 212 199 212 222 227 224 217 215 203 203 203 203 202 201 199 203 204 206 208 205 205 209 213 212 219 215 206 218 210 212 211 213 209 183 58 75 88 114 119 121 120 118
208 206 194 161 194 180 199 179 224 218 232 230 230 221 226 222 218 216 210 205 203 207 207 207 206 206 209 212 214 216 215 217 221 223 220 215 218 226 219 215 213 205 194 237 174 153 143 139 133
227 181 192 214 202 214 202 224 239 244 242 244 236 235 234 231 231 226 218 213 214 213 212 215 213 208 211 216 211 221 224 220 223 225 222 224 221 227 223 230 225 220 214 215 247 197 171 160 150
93 202 249 242 236 249 245 251 266 254 240 241 244 242 239 239 237 227 225 222 219 217 217 218 220 219 216 214 217 220 225 227 223 222 226 230 228 228 230 226 228 226 216 211 210 209 189 174 156
76 256 264 222 211 231 223 240 236 247 246 244 243 247 245 240 236 237 236 228 226 223 221 222 224 227 227 225 221 219 220 228 230 230 231 234 235 233 232 233 228 221 226 217 207 222 199 180 167
170 251 246 142 182 220 207 256 249 224 238 252 250 249 250 249 244 240 235 232 230 228 227 227 228 231 232 232 230 225 221 222 228 227 232 234 237 237 234 238 227 226 218 225 218 234 221 194 180
211 248 231 288 195 172 218 273 270 253 256 263 262 257 252 251 248 244 239 236 233 232 230 230 231 233 235 235 234 235 231 224 225 224 225 231 237 237 238 236 230 236 228 222 222 229 216 195 185
215 224 224 250 145 219 241 260 261 263 266 268 270 266 261 256 250 248 246 240 236 233 232 233 234 235 236 236 234 234 235 234 226 226 225 225 232 233 239 235 231 238 219 231 218 215 207 206 196
126 220 259 261 174 253 254 267 272 271 266 265 264 262 259 255 258 253 248 245 239 236 234 234 235 235 234 236 236 236 234 232 231 226 226 226 227 233 233 235 235 236 241 216 219 217 215 199 194
223 259 261 281 227 222 272 268 276 269 259 258 262 263 259 261 256 252 251 249 244 240 237 234 236 236 237 238 238 237 236 233 232 225 225 224 224 230 229 235 226 223 234 211 217 216 208 205 195
228 235 249 262 305 228 290 269 251 264 259 260 257 259 261 256 258 254 255 252 247 241 239 236 236 237 238 236 234 236 235 234 229 223 226 226 226 229 224 233 235 228 230 220 218 224 221 208 196
239 213 237 254 281 276 238 287 281 270 266 256 261 254 256 264 264 263 253 260 252 247 243 240 238 236 236 235 237 237 237 235 234 232 229 229 218 221 234 236 239 225 229 217 217 234 223 215 209
232 143 181 187 236 315 238 264 249 173 260 252 259 264 270 267 272 272 267 261 254 247 243 241 237 235 235 235 237 238 237 237 236 234 232 227 231 226 227 236 225 222 217 223 230 225 216 216 216
139 102 78 88 217 262 244 220 274 207 233 254 254 270 277 301 290 266 254 249 240 237 235 236 236 236 235 236 237 237 237 234 234 231 231 227 227 224 229 224 221 219 226 237 231 221 218 215 214
195 159 217 232 198 251 96 210 251 286 249 248 265 270 276 282 264 270 270 251 243 241 239 236 234 234 234 235 234 234 233 237 237 237 235 226 226 230 222 226 221 225 235 233 223 218 215 213 216
194 199 204 225 228 276 108 237 262 242 268 246 260 269 274 273 268 265 270 254 245 241 239 239 239 236 234 235 234 236 235 239 238 238 230 228 234 231 232 221 221 226 229 222 216 213 212 214 218
173 213 250 268 124 279 255 265 259 233 250 253 248 249 266 277 270 252 245 248 246 241 240 243 244 239 239 239 235 234 235 237 239 237 229 227 230 235 230 233 222 222 218 220 212 211 212 215 217
211 145 170 213 224 241 256 264 254 236 240 247 254 255 257 248 230 224 227 216 214 217 231 250 258 250 248 244 238 236 238 239 238 234 231 230 233 234 233 233 220 220 219 216 212 212 213 214 215
179 210 209 223 224 241 272 260 178 235 278 267 278 270 269 238 207 182 203 204 194 171 149 247 267 271 261 247 239 235 236 239 236 234 232 232 234 240 236 226 225 220 219 215 213 213 213 213 213
238 222 203 206 198 239 275 264 142 87 14 303 220 249 214 174 167 156 189 196 198 196 190 243 261 266 265 252 242 236 234 239 235 233 230 228 235 237 231 227 224 219 216 214 214 213 212 212 210